Flag for U.S.A. Weather past 2 weeks in Metairie, Louisiana, U.S.A.

Now
60 °F

Passing clouds.


Feels Like: 60 °F
Forecast: 49 / 59 °F
Wind: 14 mph from Northwest

Location: New Orleans International Airport

Current Time: Jan 26, 2015 at 2:47:34 PM

Latest Report: Jan 26, 2015 at 1:53 PM


Visibility: 10 mi

Pressure: 30.07 "Hg

Humidity: 39%

Dew point: 35 °F

Location of MetairieLocation

Historic Weather in Metairie — Graph

°F

Metairie temperature yesterday

Maximum temperature yesterday: 67 °F (at 1:53 PM)
Minimum temperature yesterday: 41 °F (at 1:53 AM)
Average temperature yesterday: 54 °F

Past Weeks' High & Low Weather Summary

 TemperatureHumidityPressure
High70 °F (Jan 12, 12:53 PM)97% (Jan 20, 6:53 AM)30.36 "Hg (Jan 20, 6:53 AM)
Low36 °F (Jan 19, 6:53 AM)26% (Jan 18, 2:53 PM)29.87 "Hg (Jan 25, 5:53 PM)
Average51 °F73%30.15 "Hg
* Reported Jan 11 1:53 PM — Jan 26 1:53 PM, Metairie, Weather by CustomWeather, © 2014

Note: Actual official high and low records may vary slightly from our data, if they occured in-between our weather recording intervals... More about our weather records

Advertising

Metairie weather history for previous 24 hours

 ConditionsComfort  
Time TempWeatherWind HumidityBarometerVisibility
1:53 PM
Jan 26
60 °FPassing clouds.14 mph39%30.07 "Hg10 mi
12:53 PM58 °FPassing clouds.14 mph44%30.09 "Hg10 mi
11:53 AM57 °FPassing clouds.13 mph47%30.12 "Hg10 mi
10:53 AM54 °FPassing clouds.16 mph49%30.15 "Hg10 mi
9:53 AM52 °FPassing clouds.14 mph53%30.16 "Hg10 mi
8:53 AM51 °FPassing clouds.13 mph54%30.15 "Hg10 mi
7:53 AM50 °FPassing clouds.14 mph57%30.13 "Hg10 mi
6:53 AM48 °FPassing clouds.10 mph61%30.11 "Hg10 mi
5:53 AM50 °FClear.14 mph54%30.07 "Hg10 mi
4:53 AM49 °FClear.12 mph59%30.06 "Hg10 mi
3:53 AM49 °FClear.7 mph59%30.04 "Hg10 mi
2:53 AM51 °FClear.10 mph54%30.04 "Hg10 mi
1:53 AM50 °FClear.8 mph59%30.04 "Hg10 mi
12:53 AM50 °FClear.9 mph63%30.01 "Hg10 mi
11:53 PM
Jan 25
51 °FPassing clouds.10 mph69%30.00 "Hg10 mi
10:53 PM52 °FPassing clouds.12 mph72%30.00 "Hg10 mi
9:53 PM55 °FPassing clouds.15 mph67%29.97 "Hg10 mi
8:53 PM56 °FPassing clouds.13 mph65%29.95 "Hg10 mi
7:53 PM57 °FClear.15 mph60%29.93 "Hg10 mi
6:53 PM58 °FPassing clouds.15 mph54%29.91 "Hg10 mi
5:53 PM59 °FPassing clouds.18 mph48%29.87 "Hg10 mi
4:53 PM63 °FPassing clouds.23 mph40%29.87 "Hg10 mi
3:53 PM66 °FPassing clouds.21 mph37%29.92 "Hg10 mi
2:53 PM67 °FPassing clouds.20 mph36%29.92 "Hg10 mi
Weather by CustomWeather, © 2014

See weather overviewHow to use our weather pages